ZSMPI FAOB-FYWH

Flight info

Callsign ZSMPI
Flight time N/A
Altitude 24000
Route XUGOL DCT KODES/N0310F250 UN186 ATUPI DCT VEDRY
Aircraft B350/L-SBGRW/S

Departure

Time N/A
Airport Overberg Airport (FAOB)

Arrival

Time 2026-04-22 19:22
Airport Hosea Kutako International Airport (FYWH)
Time Latitude Longitude Altitude Speed Heading
2026-04-22 19:04 -23.24220 17.14360 24044 ft 287 kts 345°
2026-04-22 19:04 -23.22250 17.14043 24044 ft 287 kts 345°
2026-04-22 19:04 -23.20279 17.13726 24041 ft 287 kts 345°
2026-04-22 19:04 -23.18301 17.13419 24044 ft 288 kts 348°
2026-04-22 19:05 -23.16276 17.13568 24056 ft 299 kts
2026-04-22 19:05 -23.14310 17.14407 24060 ft 307 kts 19°
2026-04-22 19:05 -23.12406 17.15476 24058 ft 308 kts 20°
2026-04-22 19:05 -23.10485 17.16488 24061 ft 306 kts 17°
2026-04-22 19:06 -23.08561 17.17396 24060 ft 305 kts 16°
2026-04-22 19:06 -23.06604 17.18328 23900 ft 312 kts 17°
2026-04-22 19:06 -23.04608 17.19317 23587 ft 317 kts 18°
2026-04-22 19:07 -23.00562 17.21322 22860 ft 322 kts 18°
2026-04-22 19:07 -22.98517 17.22321 22504 ft 323 kts 18°
2026-04-22 19:07 -22.96470 17.23327 22152 ft 324 kts 18°
2026-04-22 19:07 -22.94414 17.24339 21798 ft 324 kts 18°
2026-04-22 19:08 -22.92385 17.25336 21468 ft 325 kts 18°
2026-04-22 19:08 -22.90329 17.26342 21136 ft 324 kts 18°
2026-04-22 19:08 -22.88274 17.27351 20804 ft 324 kts 19°
2026-04-22 19:08 -22.86220 17.28358 20456 ft 324 kts 18°
2026-04-22 19:09 -22.84166 17.29367 20106 ft 325 kts 19°
2026-04-22 19:09 -22.82106 17.30376 19766 ft 325 kts 19°
2026-04-22 19:09 -22.80741 17.31044 19528 ft 325 kts 19°
2026-04-22 19:09 -22.77985 17.32393 19045 ft 326 kts 19°
2026-04-22 19:10 -22.75920 17.33406 18689 ft 326 kts 19°
2026-04-22 19:10 -22.73886 17.34401 18331 ft 326 kts 19°
2026-04-22 19:10 -22.71819 17.35411 17910 ft 325 kts 19°
2026-04-22 19:10 -22.69761 17.36420 17515 ft 324 kts 20°
2026-04-22 19:11 -22.67824 17.37698 17133 ft 330 kts 36°
2026-04-22 19:11 -22.66322 17.39600 16758 ft 337 kts 54°
2026-04-22 19:11 -22.65232 17.41852 16376 ft 338 kts 61°
2026-04-22 19:11 -22.64248 17.44158 16018 ft 337 kts 61°
2026-04-22 19:12 -22.63177 17.46398 15639 ft 334 kts 57°
2026-04-22 19:12 -22.62019 17.48568 15267 ft 332 kts 57°
2026-04-22 19:12 -22.60925 17.50726 14905 ft 331 kts 59°
2026-04-22 19:12 -22.59857 17.52931 14537 ft 330 kts 58°
2026-04-22 19:13 -22.58770 17.55106 14172 ft 328 kts 58°
2026-04-22 19:13 -22.57676 17.57263 13783 ft 324 kts 58°
2026-04-22 19:13 -22.56621 17.59377 13348 ft 316 kts 58°
2026-04-22 19:13 -22.55589 17.61445 12910 ft 310 kts 58°
2026-04-22 19:14 -22.54567 17.63476 12478 ft 305 kts 58°
2026-04-22 19:14 -22.53575 17.65453 12060 ft 301 kts 59°
2026-04-22 19:14 -22.52583 17.67434 11645 ft 298 kts 59°
2026-04-22 19:14 -22.51596 17.69397 11219 ft 295 kts 60°
2026-04-22 19:15 -22.50938 17.70713 10942 ft 294 kts 60°
2026-04-22 19:15 -22.49579 17.73213 10398 ft 289 kts 50°
2026-04-22 19:15 -22.48093 17.74630 9998 ft 284 kts 30°
2026-04-22 19:15 -22.46258 17.75363 9569 ft 281 kts
2026-04-22 19:16 -22.44318 17.75352 9148 ft 279 kts 351°
2026-04-22 19:16 -22.42447 17.74818 8730 ft 278 kts 335°
2026-04-22 19:16 -22.40861 17.73641 8323 ft 277 kts 314°
2026-04-22 19:16 -22.39796 17.71961 8003 ft 273 kts 292°
2026-04-22 19:17 -22.39395 17.70021 8000 ft 259 kts 274°
2026-04-22 19:17 -22.39253 17.68120 8007 ft 249 kts 275°
2026-04-22 19:17 -22.39081 17.66282 8011 ft 242 kts 270°
2026-04-22 19:17 -22.39500 17.64575 8024 ft 235 kts 236°
2026-04-22 19:18 -22.40508 17.63202 8036 ft 234 kts 235°
2026-04-22 19:18 -22.41296 17.61675 7997 ft 230 kts 244°
2026-04-22 19:18 -22.41981 17.60138 7736 ft 218 kts 243°
2026-04-22 19:18 -22.42632 17.58761 7488 ft 201 kts 242°
2026-04-22 19:19 -22.43232 17.57436 7254 ft 192 kts 243°
2026-04-22 19:19 -22.43821 17.56161 7026 ft 187 kts 242°
2026-04-22 19:19 -22.44390 17.54918 6810 ft 181 kts 242°
2026-04-22 19:19 -22.44921 17.53761 6610 ft 155 kts 241°
2026-04-22 19:20 -22.45370 17.52792 6421 ft 135 kts 242°
2026-04-22 19:20 -22.45775 17.51910 6235 ft 129 kts 243°
2026-04-22 19:20 -22.46174 17.51040 6055 ft 129 kts 242°
2026-04-22 19:20 -22.46581 17.50168 5855 ft 129 kts 242°
2026-04-22 19:21 -22.46971 17.49299 5651 ft 130 kts 243°
2026-04-22 19:21 -22.47367 17.48443 5529 ft 115 kts 242°
2026-04-22 19:21 -22.47658 17.47819 5556 ft 75 kts 244°
2026-04-22 19:21 -22.47854 17.47391 5570 ft 54 kts 244°
2026-04-22 19:22 -22.47999 17.47076 5579 ft 40 kts 244°
2026-04-22 19:22 -22.48112 17.46833 5581 ft 32 kts 242°
2026-04-22 19:22 -22.48199 17.46639 5586 ft 26 kts 245°
2026-04-22 19:22 -22.48272 17.46486 5589 ft 20 kts 244°
2026-04-22 19:23 -22.48325 17.46365 5598 ft 15 kts 243°
2026-04-22 19:23 -22.48378 17.46287 5596 ft 11 kts 192°
2026-04-22 19:23 -22.48444 17.46309 5600 ft 9 kts 174°
2026-04-22 19:23 -22.48483 17.46284 5600 ft 6 kts 243°
2026-04-22 19:24 -22.48507 17.46230 5607 ft 10 kts 242°
2026-04-22 19:24 -22.48540 17.46162 5606 ft 11 kts 243°
2026-04-22 19:24 -22.48574 17.46087 5608 ft 11 kts 241°
2026-04-22 19:24 -22.48613 17.46014 5610 ft 11 kts 227°
2026-04-22 19:25 -22.48669 17.46024 5613 ft 10 kts 153°
2026-04-22 19:25 -22.48720 17.46051 5612 ft 0 kts 154°